Lapse_Rate
3.2 2.9 2.8 2.6 2.1 2.5 2.1 1.7 0.3 0.3 0.5 0.8 1.3 1.1 1.1 0.9 1.6 2.2 2.2 2.6 2.7 3.2
3.3 3.4 3.2 2.7 3.1 3.2 2.7 1.8 0.7 0.8 0.6 0.8 1.1 1.1 0.7 0.9 2.0 2.8 2.5 2.1 3.0 2.9
3.4 3.7 3.4 3.0 3.4 2.9 3.2 2.9 1.8 1.3 1.2 1.0 1.0 1.2 1.5 1.8 2.5 2.6 1.9 2.6 2.5 2.9
3.0 3.5 3.9 4.4 3.9 4.6 4.4 4.2 3.6 2.6 2.2 2.2 2.4 2.2 2.1 2.1 3.0 3.2 3.0 2.8 3.1 4.0
3.1 3.5 3.6 3.8 4.6 4.1 5.4 5.0 4.5 4.0 3.5 3.2 2.8 2.8 3.1 3.5 3.3 3.3 3.2 3.8 4.4 4.2
3.3 3.6 3.8 3.8 4.2 5.0 5.2 5.5 4.9 4.7 4.4 4.0 3.5 3.6 3.4 3.4 3.6 3.9 4.5 4.7 4.1 4.7
3.2 3.1 3.3 3.6 3.9 5.1 5.3 5.0 5.0 4.8 4.9 4.8 4.5 4.2 3.9 3.7 4.3 4.7 5.0 4.7 4.2 4.3
3.7 3.8 3.5 3.4 3.5 3.9 4.8 5.0 5.1 4.9 4.6 4.7 5.1 5.1 4.5 4.9 4.6 4.5 4.9 4.6 4.2 4.4
4.0 3.7 3.5 3.5 3.7 3.6 3.9 4.2 4.2 3.9 4.3 4.9 5.2 4.8 5.2 4.9 4.9 4.8 4.7 4.7 4.0 4.5
5.0 5.5 5.2 4.5 4.1 4.3 3.8 3.7 3.9 4.2 4.7 5.0 5.2 5.0 4.9 4.8 5.2 4.9 5.1 4.4 4.1 4.8
4.5 4.6 5.6 6.6 5.3 4.9 4.5 3.9 4.1 4.0 4.5 4.3 4.2 4.9 5.5 5.6 4.8 5.0 4.8 3.9 4.3 4.1
4.8 4.8 5.0 5.8 6.0 6.2 5.4 4.7 4.0 4.2 4.4 4.3 4.7 5.6 5.7 5.2 5.0 4.8 4.1 3.7 3.9 5.2
4.9 5.0 5.0 6.1 7.2 6.8 6.2 5.5 5.1 4.9 4.8 5.1 5.3 6.0 5.8 5.3 4.8 4.3 4.0 3.7 4.7 6.2
5.2 6.2 7.3 7.5 7.1 7.3 7.1 5.7 5.0 4.9 5.2 5.7 5.6 5.3 6.0 5.7 4.8 4.7 4.3 5.6 5.5 5.8
Wind_Speed
7 5 5 7 7 8 8 7 6 7 9 9 10 9 8 3 4 5 4 5 4 3
6 7 6 7 7 7 7 6 8 9 7 8 8 8 6 5 5 4 4 5 5 4
7 7 7 6 9 7 7 6 7 8 8 8 7 7 7 5 4 6 4 4 6 4
6 7 7 8 8 10 9 9 10 10 10 9 9 8 7 7 6 7 5 5 5 6
7 6 6 6 7 7 9 8 10 10 10 10 9 9 10 9 8 8 7 6 5 6
7 7 7 7 6 7 8 9 9 9 10 11 11 11 11 10 8 7 6 6 6 5
12 9 7 7 6 6 7 8 10 10 11 11 12 12 10 9 7 5 5 6 5 5
12 11 9 7 7 6 6 7 7 6 6 5 5 4 5 7 7 6 5 4 3 2
11 12 8 7 7 6 5 5 6 6 7 6 4 8 11 8 6 7 6 5 3 2
11 11 11 7 6 6 6 4 4 4 6 7 7 13 13 11 4 5 5 5 5 3
14 14 14 12 8 7 6 8 5 5 5 6 5 12 13 13 5 5 5 5 5 4
13 14 14 15 12 10 7 8 8 7 8 7 6 14 14 11 6 5 5 5 5 4
12 13 14 14 14 11 11 11 8 9 8 10 9 17 17 12 6 6 4 4 4 5
13 12 14 15 12 13 13 11 9 8 7 9 10 10 18 16 7 6 4 4 4 3
Wind_Direction
211 219 226 212 200 197 198 204 192 198 192 197 189 181 172 172 192 196 202 215 226 230
229 227 234 227 216 208 204 199 187 191 194 195 194 185 175 177 191 208 198 205 218 225
258 244 229 214 217 211 209 201 185 193 194 190 186 184 180 193 198 197 195 201 207 213
288 271 251 233 219 215 202 197 195 194 189 189 194 191 184 192 191 212 197 205 196 217
297 286 266 245 228 206 209 202 201 191 191 194 191 189 193 203 188 202 200 204 204 212
301 299 282 264 242 217 211 203 201 194 198 199 199 197 200 199 186 194 194 200 196 205
325 309 285 272 252 233 216 205 203 201 203 206 207 200 202 179 175 172 198 197 176 175
314 307 300 285 268 251 232 224 214 202 180 174 192 201 190 182 171 151 174 163 167 151
329 319 291 278 270 256 240 201 173 172 174 186 195 191 189 182 174 161 170 170 171 167
333 330 316 285 262 244 227 188 208 214 208 209 206 179 175 174 162 157 164 174 155 172
335 332 325 304 265 241 214 200 198 172 182 164 172 171 170 165 156 144 150 158 163 163
326 320 319 314 282 249 224 212 193 184 179 180 185 181 175 163 155 157 160 167 163 166
317 313 311 307 312 286 239 226 213 185 185 183 195 181 171 165 159 160 159 166 158 192
308 306 309 305 297 293 274 231 206 189 193 190 178 182 177 169 170 163 167 181 171 181